Surface/Precipitation History
12/20/2014 08:50  to  12/21/2014 08:50
Change End Date:
Date/Time
(MST)
Sf
Temp Chem Water Layer Surface Precipitation
Sf Sub Frz Factor Pct Depth IcePct Cond Salin Type Intens Accum Rate
12/21/2014 08:41 Ice Warning 30.7F - 32F 95 0% - 100% 3 mhos 0 None None - -
12/21/2014 08:37 Ice Warning 30.7F - 32F 95 0% - 100% 3 mhos 0 None None - -
12/21/2014 08:27 Ice Warning 30.7F - 32F 95 0% - 100% 2 mhos 0 None None - -
12/21/2014 08:17 Ice Warning 30.7F - 32F 95 0% - 100% 3 mhos 0 Yes - - -
12/21/2014 08:11 Ice Warning 30.7F - 32F 95 0% - 100% 3 mhos 0 Yes - - -
12/21/2014 08:07 Ice Warning 30.7F - 32F 95 0% - 100% 3 mhos 0 Yes - - -
12/21/2014 07:57 Ice Warning 30.6F - 32F 95 0% - 100% 3 mhos 0 Yes - - -
12/21/2014 07:47 Ice Warning 30.7F - 32F 95 0% - 100% 2 mhos 0 Yes - - -
12/21/2014 07:41 Ice Warning 30.7F - 32F 95 0% - 100% 2 mhos 0 Yes - - -
12/21/2014 07:37 Ice Warning 30.7F - 32F 95 0% - 100% 2 mhos 0 Yes - - -
12/21/2014 07:26 Ice Warning 31.1F - 32F 95 0% - 100% 2 mhos 0 Yes - - -
12/21/2014 07:16 Ice Warning 31.1F - 32F 95 0% - 100% 2 mhos 0 Yes - - -
12/21/2014 07:11 Ice Warning 30.9F - 32F 95 0% - 100% 2 mhos 0 Yes - - -
12/21/2014 07:06 Ice Warning 30.9F - 32F 95 0% - 100% 2 mhos 0 Yes - - -
12/21/2014 06:56 Ice Warning 30.9F - 32F 95 0% - 100% 2 mhos 0 Yes - - -
Date/Time
(MST)
Sf
Temp Chem Water Layer Surface Precipitation
Sf Sub Frz Factor Pct Depth IcePct Cond Salin Type Intens Accum Rate
12/21/2014 06:46 Ice Warning 30.9F - 32F 95 0% - 100% 2 mhos 0 Yes - - -
12/21/2014 06:41 Ice Warning 30.7F - 32F 95 0% - 100% 2 mhos 0 Yes - - -
12/21/2014 06:36 Ice Warning 30.7F - 32F 95 0% - 100% 2 mhos 0 Yes - - -
12/21/2014 06:26 Ice Warning 30.7F - 32F 95 0% - 100% 2 mhos 0 Yes - - -
12/21/2014 06:16 Ice Warning 30.9F - 32F 95 0% - 100% 1 mhos 0 Yes - - -
12/21/2014 06:11 Ice Warning 30.9F - 32F 95 0% - 100% 1 mhos 0 Yes - - -
12/21/2014 06:06 Ice Warning 30.4F - 32F 95 0% - 100% 1 mhos 0 Yes - - -
12/21/2014 05:56 Ice Warning 31.5F - 32F 95 0% - 100% 1 mhos 0 Yes - - -
12/21/2014 05:46 Ice Warning 31.3F - 32F 95 0% - 100% 1 mhos 0 Yes - - -
12/21/2014 05:41 Ice Warning 31.3F - 32F 95 0% - 100% 1 mhos 0 Yes - - -
12/21/2014 05:36 Ice Warning 31.1F - 32F 95 0% - 100% 1 mhos 0 Yes - - -
12/21/2014 05:26 Ice Warning 31.1F - 32F 95 0% - 100% 1 mhos 0 Yes - - -
12/21/2014 05:16 Ice Warning 31.1F - 32F 95 0% - 100% 1 mhos 0 Yes - - -
12/21/2014 05:11 Ice Warning 31.1F - 32F 95 0% - 100% 1 mhos 0 Yes - - -
12/21/2014 05:06 Ice Warning 31.1F - 32F 95 0% - 100% 1 mhos 0 Yes - - -
Date/Time
(MST)
Sf
Temp Chem Water Layer Surface Precipitation
Sf Sub Frz Factor Pct Depth IcePct Cond Salin Type Intens Accum Rate
12/21/2014 04:56 Ice Warning 31.1F - 32F 95 0% - 100% 1 mhos 0 Yes - - -
12/21/2014 04:45 Ice Warning 31.1F - 32F 95 0% - 100% 1 mhos 0 Yes - - -
12/21/2014 04:41 Ice Warning 31.1F - 32F 95 0% - 100% 1 mhos 0 Yes - - -
12/21/2014 04:35 Ice Warning 31.1F - 32F 95 0% - 100% 1 mhos 0 Yes - - -
12/21/2014 04:25 Ice Warning 31.1F - 32F 95 0% - 100% 1 mhos 0 Yes - - -
12/21/2014 04:15 Ice Warning 31.1F - 32F 95 0% - 100% 1 mhos 0 Yes - - -
12/21/2014 04:11 Ice Warning 31.1F - 32F 95 0% - 100% 1 mhos 0 Yes - - -
12/21/2014 04:05 Ice Warning 31.1F - 32F 95 0% - 100% 1 mhos 0 Yes - - -
12/21/2014 03:55 Ice Warning 31.3F - 32F 95 0% - 100% 1 mhos 0 Yes - - -
12/21/2014 03:45 Ice Warning 31.3F - 32F 95 0% - 100% 1 mhos 0 Yes - - -
12/21/2014 03:41 Ice Warning 31.3F - 32F 95 0% - 100% 1 mhos 0 Yes - - -
12/21/2014 03:35 Ice Warning 31.1F - 32F 95 0% - 100% 1 mhos 0 Yes - - -
12/21/2014 03:25 Ice Warning 31.1F - 32F 95 0% - 100% 1 mhos 0 Yes - - -
12/21/2014 03:15 Ice Warning 31.1F - 32F 95 0% - 100% 1 mhos 0 Yes - - -
12/21/2014 03:11 Ice Warning 31.1F - 32F 95 0% - 100% 1 mhos 0 Yes - - -
Date/Time
(MST)
Sf
Temp Chem Water Layer Surface Precipitation
Sf Sub Frz Factor Pct Depth IcePct Cond Salin Type Intens Accum Rate
12/21/2014 03:05 Ice Warning 31.1F - 32F 95 0% - 100% 1 mhos 0 Yes - - -
12/21/2014 02:55 Ice Warning 31.1F - 32F 55 0% - 100% 1 mhos 0 Yes - - -
12/21/2014 02:45 Ice Warning 31.1F - 32F 90 0% - 100% 4 mhos 0 Yes - - -
12/21/2014 02:41 Ice Warning 31.1F - 32F 95 0% - 100% 5 mhos 0 Yes - - -
12/21/2014 02:35 Ice Warning 30.9F - 32F 95 0% - 100% 4 mhos 0 Yes - - -
12/21/2014 02:25 Ice Warning 31.3F - 32F 95 0% - 100% 5 mhos 0 Yes - - -
12/21/2014 02:15 Ice Warning 31.1F - 32F 95 0% - 100% 5 mhos 0 Yes - - -
12/21/2014 02:11 Ice Warning 31.1F - 32F 95 0% - 100% 5 mhos 0 Yes - - -
12/21/2014 02:05 Ice Warning 30.9F - 32F 95 0% - 100% 5 mhos 0 Yes - - -
12/21/2014 01:54 Ice Warning 30.9F - 32F 95 0% - 100% 5 mhos 0 None None - -
12/21/2014 01:44 Ice Warning 30.7F - 32F 85 0% - 100% 5 mhos 0 Yes - - -
12/21/2014 01:41 Ice Warning 30.7F - 32F 85 0% - 100% 5 mhos 0 None None - -
12/21/2014 01:34 Ice Warning 30.9F - 32F 85 0% - 100% 5 mhos 0 None None - -
12/21/2014 01:24 Ice Warning 30.6F - 32F 80 0% - 100% 4 mhos 0 None None - -
12/21/2014 01:14 Ice Warning 30.6F - 32F 80 0% - 100% 4 mhos 0 None None - -
Date/Time
(MST)
Sf
Temp Chem Water Layer Surface Precipitation
Sf Sub Frz Factor Pct Depth IcePct Cond Salin Type Intens Accum Rate
12/21/2014 01:11 Ice Warning 30.4F - 32F 80 0% - 100% 4 mhos 0 None None - -
12/21/2014 01:04 Ice Warning 30.6F - 32F 80 0% - 100% 4 mhos 0 None None - -
12/21/2014 00:54 Ice Warning 30.6F - 32F 80 0% - 100% 4 mhos 0 None None - -
12/21/2014 00:44 Ice Warning 30.7F - 32F 80 0% - 100% 4 mhos 0 None None - -
12/21/2014 00:41 Ice Warning 30.6F - 32F 80 0% - 100% 4 mhos 0 None None - -
12/21/2014 00:34 Ice Warning 30.6F - 32F 85 0% - 100% 4 mhos 0 None None - -
12/21/2014 00:24 Ice Warning 30.6F - 32F 75 0% - 100% 4 mhos 0 None None - -
12/21/2014 00:14 Ice Warning 30.7F - 32F 95 0% - 100% 4 mhos 0 Yes - - -
12/21/2014 00:10 Ice Warning 30.9F - 32F 95 0% - 100% 4 mhos 0 Yes - - -
12/21/2014 00:05 Ice Warning 30.9F - 32F 95 0% - 100% 2 mhos 0 Yes - - -
12/21/2014 00:04 Ice Warning 30.9F - 32F 95 0% - 100% 2 mhos 0 Yes - - -
12/20/2014 23:54 Ice Warning 30.7F - 32F 95 0% - 100% 1 mhos 0 Yes - - -
12/20/2014 23:44 Ice Warning 30.7F - 32F 95 0% - 100% 1 mhos 0 None None - -
12/20/2014 23:34 Ice Warning 30.7F - 32F 95 0% - 100% 1 mhos 0 Yes - - -
12/20/2014 23:31 Ice Warning 30.7F - 32F 90 0% - 100% 1 mhos 0 Yes - - -
Date/Time
(MST)
Sf
Temp Chem Water Layer Surface Precipitation
Sf Sub Frz Factor Pct Depth IcePct Cond Salin Type Intens Accum Rate
12/20/2014 23:24 Ice Warning 30.9F - 32F 70 0% - 100% 1 mhos 0 Yes - - -
12/20/2014 23:14 Ice Warning 30.9F - 32F 95 0% - 100% 2 mhos 0 Yes - - -
12/20/2014 23:03 Ice Warning 30.7F - 32F 90 0% - 100% 2 mhos 0 Yes - - -
12/20/2014 23:01 Ice Warning 30.7F - 32F 75 0% - 100% 2 mhos 0 Yes - - -
12/20/2014 22:53 Ice Warning 30.9F - 32F 20 0% - 100% 2 mhos 0 Yes - - -
12/20/2014 22:43 Ice Warning 30.7F - 32F 40 0% - 100% 2 mhos 0 Yes - - -
12/20/2014 22:33 Ice Warning 30.9F - 32F 45 0% - 100% 2 mhos 0 Yes - - -
12/20/2014 22:31 Ice Warning 31.1F - 32F 40 0% - 100% 4 mhos 0 Yes - - -
12/20/2014 22:23 Ice Warning 31.3F - 32F 30 0% - 100% 6 mhos 0 Yes - - -
12/20/2014 22:13 Ice Warning 31.3F - 32F 20 0% - 100% 6 mhos 0 Yes - - -
12/20/2014 22:03 Ice Warning 31.1F - 32F 20 0% - 100% 6 mhos 0 Yes - - -
12/20/2014 22:01 Ice Warning 31.1F - 32F 20 0% - 100% 6 mhos 0 None None - -
12/20/2014 21:53 Ice Warning 30.9F - 32F 15 0% - 100% 6 mhos 0 None None - -
12/20/2014 21:43 Ice Warning 30.4F - 32F 25 0% - 100% 6 mhos 0 None None - -
12/20/2014 21:33 Ice Warning 30.2F - 32F 35 0% - 100% 6 mhos 0 None None - -
Date/Time
(MST)
Sf
Temp Chem Water Layer Surface Precipitation
Sf Sub Frz Factor Pct Depth IcePct Cond Salin Type Intens Accum Rate
12/20/2014 21:31 Ice Warning 30.2F - 32F 35 0% - 100% 6 mhos 0 None None - -
12/20/2014 21:23 Ice Warning 30.2F - 32F 20 0% - 100% 6 mhos 0 None None - -
12/20/2014 21:13 Ice Warning 30.2F - 32F 25 0% - 100% 7 mhos 0 None None - -
12/20/2014 21:03 Ice Warning 30.0F - 32F 30 0% - 100% 7 mhos 0 None None - -
12/20/2014 21:01 Ice Warning 30.0F - 32F 30 0% - 100% 7 mhos 0 None None - -
12/20/2014 20:53 Ice Warning 29.8F - 32F 35 0% - 100% 7 mhos 0 None None - -
12/20/2014 20:43 Ice Warning 29.8F - 32F 35 0% - 100% 7 mhos 0 None None - -
12/20/2014 20:33 Ice Warning 29.8F - 32F 40 0% - 100% 6 mhos 0 None None - -
12/20/2014 20:31 Ice Warning 29.8F - 32F 35 0% - 100% 7 mhos 0 None None - -
12/20/2014 20:23 Ice Warning 29.8F - 32F 40 0% - 100% 7 mhos 0 None None - -
12/20/2014 20:13 Ice Warning 30.0F - 32F 45 0% - 100% 7 mhos 0 None None - -
12/20/2014 20:02 Ice Warning 30.4F - 32F 45 0% - 100% 7 mhos 0 None None - -
12/20/2014 20:01 Ice Warning 30.2F - 32F 45 0% - 100% 7 mhos 0 None None - -
12/20/2014 19:52 Ice Warning 30.2F - 32F 55 0% - 100% 7 mhos 0 None None - -
12/20/2014 19:42 Ice Warning 30.4F - 32F 55 0% - 100% 7 mhos 0 None None - -
Date/Time
(MST)
Sf
Temp Chem Water Layer Surface Precipitation
Sf Sub Frz Factor Pct Depth IcePct Cond Salin Type Intens Accum Rate
12/20/2014 19:32 Ice Warning 30.4F - 32F 65 0% - 100% 7 mhos 0 None None - -
12/20/2014 19:31 Ice Warning 30.4F - 32F 65 0% - 100% 7 mhos 0 None None - -
12/20/2014 19:22 Ice Warning 30.4F - 32F 70 0% - 100% 7 mhos 0 None None - -
12/20/2014 19:12 Ice Warning 30.2F - 32F 80 0% - 100% 7 mhos 0 None None - -
12/20/2014 19:02 Ice Warning 30.2F - 32F 85 0% - 100% 7 mhos 0 None None - -
12/20/2014 19:01 Ice Warning 30.4F - 32F 90 0% - 100% 7 mhos 0 None None - -
12/20/2014 18:52 Ice Warning 30.6F - 32F 95 0% - 100% 8 mhos 0 None None - -
12/20/2014 18:42 Ice Warning 30.2F - 32F 95 0% - 100% 8 mhos 0 None None - -
12/20/2014 18:32 Ice Warning 30.4F - 32F 95 0% - 100% 8 mhos 0 None None - -
12/20/2014 18:31 Ice Warning 30.4F - 32F 95 0% - 100% 8 mhos 0 None None - -
12/20/2014 18:22 Ice Warning 30.7F - 32F 95 0% - 100% 8 mhos 0 None None - -
12/20/2014 18:12 Ice Warning 30.6F - 32F 95 0% - 100% 8 mhos 0 None None - -
12/20/2014 18:02 Ice Warning 30.4F - 32F 95 0% - 100% 8 mhos 0 None None - -
12/20/2014 18:01 Ice Warning 30.6F - 32F 95 0% - 100% 8 mhos 0 None None - -
12/20/2014 17:52 Ice Warning 30.4F - 32F 95 0% - 100% 8 mhos 0 None None - -
Date/Time
(MST)
Sf
Temp Chem Water Layer Surface Precipitation
Sf Sub Frz Factor Pct Depth IcePct Cond Salin Type Intens Accum Rate
12/20/2014 17:42 Ice Warning 30.4F - 32F 95 0% - 100% 8 mhos 0 None None - -
12/20/2014 17:31 Ice Warning 30.6F - 32F 95 0% - 100% 8 mhos 0 None None - -
12/20/2014 17:31 Ice Warning 30.6F - 32F 95 0% - 100% 8 mhos 0 None None - -
12/20/2014 17:21 Ice Warning 30.9F - 32F 95 0% - 100% 8 mhos 0 None None - -
12/20/2014 17:11 Ice Warning 31.1F - 32F 95 0% - 100% 8 mhos 0 None None - -
12/20/2014 17:01 Ice Warning 31.3F - 32F 95 0% - 100% 8 mhos 0 None None - -
12/20/2014 17:00 Ice Warning 31.3F - 32F 95 0% - 100% 8 mhos 0 None None - -
12/20/2014 16:51 Ice Warning 31.3F - 32F 95 0% - 100% 8 mhos 0 None None - -
12/20/2014 16:41 Ice Warning 31.6F - 32F 95 0% - 100% 8 mhos 0 None None - -
12/20/2014 16:31 Ice Warning 32.0F - 32F 95 0% - 100% 8 mhos 0 None None - -
12/20/2014 16:31 Ice Warning 32.0F - 32F 95 0% - 100% 8 mhos 0 None None - -
12/20/2014 16:21 Wet 32.5F - 32F 95 0% 0.00 in 0% 8 mhos 0 None None - -
12/20/2014 16:11 Wet 32.9F - 32F 95 0% 0.00 in 0% 8 mhos 0 None None - -
12/20/2014 16:01 Wet 33.4F - 32F 95 0% 0.00 in 0% 8 mhos 0 None None - -
12/20/2014 16:00 Wet 33.4F - 32F 95 0% 0.00 in 0% 8 mhos 0 None None - -
Date/Time
(MST)
Sf
Temp Chem Water Layer Surface Precipitation
Sf Sub Frz Factor Pct Depth IcePct Cond Salin Type Intens Accum Rate
12/20/2014 15:51 Wet 33.3F - 32F 95 0% 0.00 in 0% 8 mhos 0 None None - -
12/20/2014 15:41 Wet 33.3F - 32F 95 0% 0.00 in 0% 8 mhos 0 None None - -
12/20/2014 15:36 Wet 33.8F - 32F 95 0% 0.00 in 0% 7 mhos 0 None None - -
12/20/2014 15:31 Wet 33.8F - 32F 95 0% 0.00 in 0% 7 mhos 0 None None - -
12/20/2014 15:21 Wet 33.8F - 32F 85 0% 0.00 in 0% 7 mhos 0 Yes - - -
12/20/2014 15:11 Wet 33.8F - 32F 90 0% 0.00 in 0% 7 mhos 0 Yes - - -
12/20/2014 15:01 Wet 34.5F - 32F 95 0% 0.00 in 0% 7 mhos 0 None None - -
12/20/2014 15:01 Wet 34.5F - 32F 95 0% 0.00 in 0% 7 mhos 0 None None - -
12/20/2014 14:51 Wet 34.9F - 32F 95 0% 0.00 in 0% 7 mhos 0 None None - -
12/20/2014 14:41 Wet 35.2F - 32F 95 0% 0.00 in 0% 7 mhos 0 None None - -
12/20/2014 14:31 Wet 34.7F - 32F 95 0% 0.00 in 0% 7 mhos 0 None None - -
12/20/2014 14:30 Wet 34.7F - 32F 95 0% 0.00 in 0% 7 mhos 0 None None - -
12/20/2014 14:20 Wet 34.3F - 32F 95 0% 0.00 in 0% 7 mhos 0 None None - -
12/20/2014 14:10 Wet 33.4F - 32F 95 0% 0.00 in 0% 7 mhos 0 Yes - - -
12/20/2014 14:01 Wet 32.9F - 32F 95 0% 0.00 in 0% 6 mhos 0 Yes - - -
Date/Time
(MST)
Sf
Temp Chem Water Layer Surface Precipitation
Sf Sub Frz Factor Pct Depth IcePct Cond Salin Type Intens Accum Rate
12/20/2014 14:00 Wet 33.1F - 32F 95 0% 0.00 in 0% 6 mhos 0 Yes - - -
12/20/2014 13:50 Wet 32.9F - 32F 95 0% 0.00 in 0% 6 mhos 0 Yes - - -
12/20/2014 13:40 Wet 32.7F - 32F 95 0% 0.00 in 0% 6 mhos 0 Yes - - -
12/20/2014 13:31 Wet 32.7F - 32F 95 0% 0.00 in 0% 6 mhos 0 Yes - - -
12/20/2014 13:30 Wet 32.5F - 32F 95 0% 0.00 in 0% 6 mhos 0 Yes - - -
12/20/2014 13:20 Wet 32.5F - 32F 95 0% 0.00 in 0% 6 mhos 0 None None - -
12/20/2014 13:10 Wet 32.5F - 32F 95 0% 0.00 in 0% 6 mhos 0 None None - -
12/20/2014 13:01 Wet 32.5F - 32F 95 0% 0.00 in 0% 5 mhos 0 None None - -
12/20/2014 13:00 Wet 32.5F - 32F 95 0% 0.00 in 0% 5 mhos 0 Yes - - -
12/20/2014 12:50 Wet 32.4F - 32F 95 0% 0.00 in 0% 5 mhos 0 Yes - - -
12/20/2014 12:40 Ice Warning 31.8F - 32F 95 0% - 100% 5 mhos 0 None None - -
12/20/2014 12:33 Ice Warning 31.6F - 32F 95 0% - 100% 5 mhos 0 Yes - - -
12/20/2014 12:30 Ice Warning 32.0F - 32F 95 0% - 100% 5 mhos 0 Yes - - -
12/20/2014 12:20 Ice Warning 31.8F - 32F 95 0% - 100% 5 mhos 0 Yes - - -
12/20/2014 12:10 Ice Warning 31.6F - 32F 95 0% - 100% 5 mhos 0 Yes - - -
Date/Time
(MST)
Sf
Temp Chem Water Layer Surface Precipitation
Sf Sub Frz Factor Pct Depth IcePct Cond Salin Type Intens Accum Rate
12/20/2014 12:01 Ice Warning 31.6F - 32F 95 0% - 100% 6 mhos 0 None None - -
12/20/2014 12:00 Ice Warning 31.6F - 32F 95 0% - 100% 6 mhos 0 None None - -
12/20/2014 11:49 Ice Warning 31.5F - 32F 95 0% - 100% 6 mhos 0 None None - -
12/20/2014 11:39 Ice Warning 31.5F - 32F 95 0% - 100% 6 mhos 0 None None - -
12/20/2014 11:31 Ice Warning 31.5F - 32F 95 0% - 100% 6 mhos 0 Yes - - -
12/20/2014 11:29 Ice Warning 31.3F - 32F 95 0% - 100% 5 mhos 0 Yes - - -
12/20/2014 11:19 Ice Warning 31.1F - 32F 95 0% - 100% 5 mhos 0 Yes - - -
12/20/2014 11:09 Ice Warning 30.9F - 32F 95 0% - 100% 5 mhos 0 Yes - - -
12/20/2014 11:01 Ice Warning 30.7F - 32F 95 0% - 100% 5 mhos 0 None None - -
12/20/2014 10:59 Ice Warning 30.9F - 32F 95 0% - 100% 5 mhos 0 None None - -
12/20/2014 10:49 Ice Warning 30.9F - 32F 95 0% - 100% 5 mhos 0 None None - -
12/20/2014 10:39 Ice Warning 30.6F - 32F 95 0% - 100% 5 mhos 0 None None - -
12/20/2014 10:31 Ice Warning 30.2F - 32F 95 0% - 100% 4 mhos 0 Yes - - -
12/20/2014 10:29 Ice Warning 30.2F - 32F 95 0% - 100% 5 mhos 0 Yes - - -
12/20/2014 10:19 Ice Warning 30.2F - 32F 95 0% - 100% 4 mhos 0 None None - -
Date/Time
(MST)
Sf
Temp Chem Water Layer Surface Precipitation
Sf Sub Frz Factor Pct Depth IcePct Cond Salin Type Intens Accum Rate
12/20/2014 10:09 Ice Warning 29.8F - 32F 95 0% - 100% 3 mhos 0 None None - -
12/20/2014 10:01 Ice Warning 29.5F - 32F 85 0% - 100% 2 mhos 0 None None - -
12/20/2014 09:59 Ice Warning 29.3F - 32F 85 0% - 100% 2 mhos 0 None None - -
12/20/2014 09:49 Ice Warning 28.4F - 32F 65 0% - 100% 2 mhos 0 None None - -
12/20/2014 09:39 Ice Warning 28.0F - 32F 55 0% - 100% 2 mhos 0 None None - -
12/20/2014 09:30 Ice Warning 27.3F - 32F 55 0% - 100% 2 mhos 0 None None - -
12/20/2014 09:29 Ice Warning 27.0F - 32F 50 0% - 100% 2 mhos 0 None None - -
12/20/2014 09:19 Ice Warning 26.8F - 32F 55 0% - 100% 2 mhos 0 None None - -
12/20/2014 09:09 Ice Warning 26.2F - 32F 55 0% - 100% 2 mhos 0 None None - -
12/20/2014 09:00 Ice Warning 26.2F - 32F 60 0% - 100% 2 mhos 0 None None - -
12/20/2014 08:58 Ice Warning 26.2F - 32F 60 0% - 100% 2 mhos 0 None None - -
Change End Date:
Copyright © 1998-2005 Surface Systems, Inc.
All Rights Reserved
Send comments about the data to:
SCAN Web ® is a registered trademark of Surface Systems, Inc.
SCAN Web Version 5.6